Regional Weather Roundup
Issued by NWS

Home | Current Version | Previous Version | Graphics & Text | Print | Product List | Glossary On
Versions: 1 2 3 4 5 6 7 8 9 10 11 12 13 14 15 16 17 18 19 20 21 22 23 24 25 26 27 28 29 30 31 32 33 34 35 36 37 38 39 40 41 42 43 44 45 46 47 48 49 50
000
ASUS43 KMKX 251511
RWRWI

WISCONSIN REGIONAL WEATHER ROUNDUP
NATIONAL WEATHER SERVICE MILWAUKEE/SULLIVAN WI
900 AM CST THU DEC 25 2014

NOTE: "FAIR" INDICATES FEW OR NO CLOUDS BELOW 12,000 FEET WITH NO
SIGNIFICANT WEATHER AND/OR OBSTRUCTIONS TO VISIBILITY.

WIZ001-002-006>008-014>016-023>028-251600-
NORTHWEST WISCONSIN

CITY           SKY/WX    TMP DP  RH WIND       PRES   REMARKS
SUPERIOR ARPT  CLOUDY    32  29  87 W8        29.65R WCI  25
ASHLAND        CLOUDY    33  28  81 SW10      29.64R WCI  25
HAYWARD        CLOUDY    31  26  82 SW10      29.66R WCI  22
SIREN          CLOUDY    31  28  88 SW12      29.68R WCI  22
CUMBERLAND     CLOUDY    30  27  86 SW13      29.68R WCI  20
RICE LAKE      CLOUDY    31  27  86 S8        29.70R WCI  23
CHETEK         CLOUDY    30  27  88 S5        29.70R WCI  25
LADYSMITH      CLOUDY    31  28  88 S13       29.70R WCI  21
EAU CLAIRE     CLOUDY    30  26  85 S10       29.71R WCI  21
MENOMONIE      CLOUDY    31  28  86 S8        29.72R WCI  24
NEW RICHMOND   CLOUDY    30  29  94 SW8       29.70R WCI  23
OSCEOLA        CLOUDY    31  31  99 S6        29.73R WCI  25
$$

WIZ003>005-009-010-017-018-251600-
NORTH CENTRAL WISCONSIN

CITY           SKY/WX    TMP DP  RH WIND       PRES   REMARKS
MANITOWISH WTR CLOUDY    29  28  96 SW8       29.63R WCI  21
ARBOR VITAE    CLOUDY    32  30  92 SW10      29.64R WCI  23
WOODRUFF       CLOUDY    32  30  92 SW10      29.64R WCI  23
RHINELANDER    CLOUDY    29  27  92 SW8       29.67R WCI  21
EAGLE RIVER    CLOUDY    30  28  95 SW10      29.63S WCI  21
LAND O LAKES   CLOUDY    31  28  90 SW7       29.63R WCI  24
PHILLIPS       CLOUDY    29  27  92 SW8       29.65R WCI  21
TOMAHAWK       CLOUDY    30  27  90 CALM      29.68R
MEDFORD        CLOUDY    29  26  89 SW13      29.69R WCI  19
MERRILL        CLOUDY    31  28  88 SW10      29.70R WCI  22
$$

WIZ029-030-035-036-043>047-251600-
CENTRAL WISCONSIN

CITY           SKY/WX    TMP DP  RH WIND       PRES   REMARKS
WAUSAU         CLOUDY    31  27  85 SW8       29.71R WCI  23
MOSINEE        CLOUDY    30  28  93 SW10G17   29.73R WCI  21
MARSHFIELD     CLOUDY    30  26  85 SW10      29.72R WCI  21
STEVENS POINT  CLOUDY    30  26  84 SW7       29.75R WCI  23
WAUPACA        CLOUDY    35  29  79 SW9       29.77R WCI  27
WAUTOMA        CLOUDY    33  28  82 SW8       29.78R WCI  26
WISC RAPIDS    CLOUDY    31  25  78 SW10      29.77R WCI  22
CAMP DOUGLAS   CLOUDY    31  31  99 SW10      29.78R WCI  23
$$

WIZ011>013-019>022-031-037>040-048>050-251600-
NORTHEAST WISCONSIN

CITY           SKY/WX    TMP DP  RH WIND       PRES   REMARKS
ANTIGO         CLOUDY    29  27  90 SW10      29.70R WCI  20
SHAWANO        CLOUDY    35  29  80 SW8       29.75R WCI  28
OCONTO         CLOUDY    33  31  90 W9        29.75R WCI  26
STURGEON BAY   CLOUDY    34  27  75 SW12G20   29.76R WCI  25
GREEN BAY      CLOUDY    34  30  85 SW12      29.77R WCI  25
MANITOWOC      CLOUDY    35  30  82 W14       29.79R WCI  26
APPLETON       CLOUDY    34  30  86 SW18      29.76R WCI  23
CLINTONVILLE   CLOUDY    32  30  93 SW10      29.76R WCI  24
OSHKOSH        CLOUDY    34  28  79 SW12      29.79R WCI  25
$$

WIZ032>034-041-042-053>061-251600-
SOUTHWEST WISCONSIN

CITY           SKY/WX    TMP DP  RH WIND       PRES   REMARKS
LA CROSSE      CLOUDY    33  27  78 S7        29.78R WCI  27
SPARTA         CLOUDY    32  27  83 SW7       29.79R WCI  25
VIROQUA        CLOUDY    30  30 100 S14       29.77R WCI  20
BOSCOBEL       CLOUDY    33  27  78 SW13      29.83R WCI  24
PRAIRIE DU CHI CLOUDY    33  27  80 S5        29.82R WCI  28
PLATTEVILLE    CLOUDY    32  29  89 S13       29.85R WCI  22
$$

WIZ056-057-062-063-064-067-068-251600-
SOUTH CENTRAL WISCONSIN

CITY           SKY/WX    TMP DP  RH WIND       PRES   REMARKS
REEDSBURG      CLOUDY    31  28  88 SW14      29.80R WCI  21
BARABOO/DELLS  CLOUDY    31  27  84 SW12      29.80R WCI  22
LONE ROCK      CLOUDY    36  27  69 SW9       29.83R WCI  29
MINERAL POINT  CLOUDY    32  30  93 SW10      29.83R WCI  24
MADISON        CLOUDY    32  26  78 SW10G18   29.83R WCI  24
MIDDLETON      CLOUDY    33  28  81 SW15G21   29.84R WCI  23
WATERTOWN      CLOUDY    32  28  84 SW12      29.84R WCI  23
MONROE         CLOUDY    32  30  93 SW17G25   29.85R WCI  21
JANESVILLE     CLOUDY    34  28  80 MISG      29.87R
$$

WIZ051-052-058>065-066-070>072-251600-
SOUTHEAST WISCONSIN

CITY           SKY/WX    TMP DP  RH WIND       PRES   REMARKS
MILWAUKEE      CLOUDY    35  26  69 SW18      29.86R WCI  24
WAUKESHA       CLOUDY    30  27  86 SW9       29.84R WCI  22
MILWAUKEE/TIMM NOT AVBL
RACINE         CLOUDY    34  27  75 SW14G24   29.88R WCI  25
BURLINGTON     CLOUDY    32  27  83 SW10G21   29.88R WCI  23
KENOSHA        CLOUDY    34  28  79 SW20G28   29.87R WCI  23
FOND DU LAC    CLOUDY    33  27  78 SW17G24   29.80R WCI  22
SHEBOYGAN      CLOUDY    34  28  79 W15       29.80R WCI  24
WEST BEND      CLOUDY    32  28  86 SW13G18   29.82R WCI  22
JUNEAU         CLOUDY    32  27  84 SW14      29.84R WCI  22
$$

LSZ147-162-251600-
LAKE SUPERIOR

STATION/POSITION TIME  TEMP    WIND        PRES    WAVE
                       AIR SEA DIR/SP/G            HT/PER
                 (UTC) (F)     (DEG/KT/KT) (MB)    (FT/S)
DEVILS ISLAND    1500   34     230/ 18/ 22 1003.8R
PORT WING        1440   33     200/  8/ 11 1004.1R
SAXON HARBOR     1400   34     200/ 10/ 16 1002.7R
$$

LMZ867-665-643>646-251600-
LAKE MICHIGAN

STATION/POSITION TIME  TEMP    WIND        PRES    WAVE
                       AIR SEA DIR/SP/G            HT/PER
                 (UTC) (F)     (DEG/KT/KT) (MB)    (FT/S)
CHAMBERS ISLAND  1400   33     210/  7/ 12 1006.1R
NORTHPORT PIER   1400   33     230/  6/ 11 1005.8R
SISTER BAY       1413          240/ 12/ 15   N/A
ALGOMA LAKESHORE 1415          260/ 10/ 13   N/A
KEWAUNEE LAKESHO 1400   35     250/  5/ 11 1006.3R
SHEBOYGAN LAKESH 1500   35 37  240/ 16/ 21 1010.1R
PORT WASHINGTON  1400   35     250/  9/ 15 1009.8R
MILWAUKEE LAKESH 1400   35     250/ 11/ 14   N/A
KENOSHA   LAKESH 1500   34     240/ 14/ 21 1012.2R
$$

TC  - TEMPERATURE IN CELSIUS
VSB - VISIBILITY IN STATUTE MILES
WCI - WIND CHILL INDEX
HX  - HEAT INDEX



USA.gov is the U.S. government's official web portal to all federal, state and local government web resources and services.